Weather History for Annette Island, AK

Change the Weather History Date:

Tuesday, February 19, 2013

  Actual Average Record
Temperature  
Mean Temperature 38 °F 38 °F  
Max Temperature 42 °F 43 °F 58 °F (1977)
Min Temperature 33 °F 33 °F 9 °F (1986)
Degree Days  
Heating Degree Days 27 27  
Month to date heating degree days 470 516  
Since 1 July heating degree days 4293 4295  
Cooling Degree Days 0    
Month to date cooling degree days 0  
Year to date cooling degree days 0  
Moisture  
Dew Point 36 °F    
Average Humidity 0    
Maximum Humidity 0    
Minimum Humidity 0    
Precipitation  
Precipitation 0.01 in 0.25 in 2.07 in (1960)
Month to date precipitation 9.08 5.12  
Year to date precipitation 17.28 15.85  
Snow  
Snow 0.00 in 0.30 in 7.80 in (1972)
Month to date snowfall 0.0 4.8  
Since 1 July snowfall 11.9 24.1  
Snow Depth 0.00 in    
Sea Level Pressure  
Sea Level Pressure 29.87 in    
Wind  
Wind Speed 3 mph (SE)    
Max Wind Speed 12 mph    
Max Gust Speed 13 mph    
Visibility 10 miles    
Events Rain    
T = Trace of Precipitation, MM = Missing Value Source: NWS Daily Summary

Daily Weather History Graph

Daily Weather History Graph

Search for Another Location

Airport:

Trip Planner

Search our weather history database for the weather conditions in past years. The results will help you decide how hot, cold, wet, or windy it might be!

Date:

Astronomy

Feb. 19, 2013 Rise Set
Actual Time 6:58 AM AKST 5:02 PM AKST
Civil Twilight 6:21 AM AKST 5:39 PM AKST
Nautical Twilight 5:39 AM AKST 6:21 PM AKST
Astronomical Twilight 4:57 AM AKST 7:03 PM AKST
Moon 11:06 AM AKST (2/19) 3:09 AM AKST (2/19)
Length of Visible Light 11h 17m
Length of Day
10h 03m
Waxing Gibbous, 69% of the Moon is Illuminated
Feb 19
Waxing Gibbous
Feb 25
Full
Mar 4
Last Quarter
Mar 11
New
Mar 19
First Quarter

Hourly Weather History & Observations

Time (AKST) Temp. Windchill Dew Point Humidity Pressure Visibility Wind Dir Wind Speed Gust Speed Precip Events Conditions
12:53 AM 36.0 °F - 35.1 °F 97% 29.86 in 10.0 mi Calm Calm - N/A   Overcast
1:53 AM 36.0 °F - 35.1 °F 97% 29.88 in 10.0 mi Calm Calm - N/A   Overcast
2:05 AM 35.6 °F - 35.6 °F 100% 29.88 in 10.0 mi Calm Calm - N/A   Overcast
2:43 AM 35.6 °F - 33.8 °F 93% 29.88 in 10.0 mi Calm Calm - N/A   Overcast
3:40 AM 35.6 °F - 35.6 °F 100% 29.89 in 10.0 mi Calm Calm - N/A   Overcast
3:53 AM 36.0 °F - 35.1 °F 97% 29.89 in 10.0 mi Calm Calm - N/A   Overcast
4:53 AM 35.1 °F - 34.0 °F 96% 29.90 in 10.0 mi Calm Calm - N/A   Overcast
5:17 AM 35.6 °F - 33.8 °F 93% 29.89 in 10.0 mi Calm Calm - N/A   Overcast
5:53 AM 35.1 °F - 34.0 °F 96% 29.89 in 10.0 mi Calm Calm - N/A   Overcast
6:45 AM 33.8 °F - 33.8 °F 100% 29.90 in 10.0 mi Calm Calm - N/A   Mostly Cloudy
6:53 AM 34.0 °F - 33.1 °F 96% 29.91 in 10.0 mi Calm Calm - N/A   Mostly Cloudy
7:17 AM 33.8 °F - 33.8 °F 100% 29.92 in 10.0 mi Calm Calm - N/A   Scattered Clouds
7:53 AM 35.1 °F 32.2 °F 34.0 °F 96% 29.95 in 10.0 mi NNE 3.5 mph - N/A   Mostly Cloudy
8:53 AM 37.9 °F - 36.0 °F 93% 29.93 in 10.0 mi Calm Calm - N/A   Mostly Cloudy
9:00 AM 37.4 °F - 35.6 °F 93% 29.92 in 10.0 mi Calm Calm - N/A   Overcast
9:53 AM 39.9 °F 37.8 °F 37.0 °F 89% 29.93 in 10.0 mi ESE 3.5 mph - N/A   Overcast
10:32 AM 41.0 °F 38.0 °F 35.6 °F 81% 29.94 in 10.0 mi SE 4.6 mph - N/A   Overcast
10:53 AM 41.0 °F 37.1 °F 37.0 °F 86% 29.95 in 10.0 mi SSE 5.8 mph - N/A   Overcast
11:53 AM 41.0 °F 36.4 °F 36.0 °F 82% 29.94 in 10.0 mi SE 6.9 mph - N/A   Overcast
12:53 PM 42.1 °F 37.1 °F 37.0 °F 82% 29.93 in 10.0 mi SE 8.1 mph - N/A   Overcast
1:50 PM 41.0 °F 36.4 °F 37.4 °F 87% 29.92 in 10.0 mi SE 6.9 mph - 0.00 in   Overcast
1:53 PM 41.0 °F 35.8 °F 37.0 °F 86% 29.93 in 10.0 mi SE 8.1 mph - 0.00 in   Overcast
2:25 PM 41.0 °F 36.4 °F 37.4 °F 87% 29.91 in 10.0 mi ESE 6.9 mph - 0.01 in   Overcast
3:41 PM 39.2 °F - 37.4 °F 93% 29.91 in 6.0 mi Calm Calm - 0.02 in Rain Light Rain
3:53 PM 39.9 °F - 37.9 °F 93% 29.92 in 10.0 mi Calm Calm - 0.04 in Rain Light Rain
4:14 PM 41.0 °F 37.1 °F 37.4 °F 87% 29.91 in 10.0 mi SE 5.8 mph - 0.00 in   Overcast
4:53 PM 41.0 °F 37.1 °F 37.0 °F 86% 29.90 in 10.0 mi SE 5.8 mph - 0.00 in   Overcast
5:53 PM 39.9 °F 35.1 °F 36.0 °F 86% 29.88 in 10.0 mi SE 6.9 mph - 0.00 in Rain Light Rain
6:53 PM 39.0 °F 32.8 °F 36.0 °F 89% 29.87 in 10.0 mi ESE 9.2 mph - 0.00 in Rain Light Rain
7:40 PM 39.2 °F 31.2 °F 37.4 °F 93% 29.84 in 5.0 mi ESE 13.8 mph 19.6 mph 0.02 in Rain Light Rain
7:48 PM 39.2 °F 33.0 °F 37.4 °F 93% 29.84 in 7.0 mi SE 9.2 mph - 0.03 in Rain Light Rain
7:53 PM 39.9 °F 33.9 °F 37.9 °F 93% 29.85 in 8.0 mi SE 9.2 mph - 0.03 in Rain Light Rain
8:11 PM 39.2 °F 33.6 °F 37.4 °F 93% 29.84 in 10.0 mi SSE 8.1 mph 17.3 mph 0.00 in   Overcast
8:53 PM 39.9 °F 32.9 °F 37.0 °F 89% 29.83 in 10.0 mi SE 11.5 mph 18.4 mph 0.00 in   Overcast
9:53 PM 39.9 °F 32.5 °F 36.0 °F 86% 29.79 in 10.0 mi SE 12.7 mph - N/A   Overcast
10:43 PM 39.2 °F 30.8 °F 35.6 °F 87% 29.76 in 10.0 mi SE 15.0 mph 21.9 mph N/A   Overcast
10:53 PM 41.0 °F 33.1 °F 36.0 °F 82% 29.77 in 10.0 mi SE 15.0 mph 23.0 mph N/A   Overcast
11:07 PM 39.2 °F 31.2 °F 35.6 °F 87% 29.76 in 10.0 mi SE 13.8 mph 23.0 mph N/A   Overcast
11:33 PM 39.2 °F 31.6 °F 35.6 °F 87% 29.75 in 10.0 mi SE 12.7 mph 20.7 mph N/A   Overcast
11:51 PM 41.0 °F 33.1 °F 35.6 °F 81% 29.74 in 10.0 mi SE 15.0 mph 24.2 mph N/A   Overcast
11:53 PM 41.0 °F 32.8 °F 36.0 °F 82% 29.75 in 10.0 mi SE 16.1 mph 24.2 mph N/A   Overcast